• In Netherlands
  • List of Countries
  • For 7 days
  • Water Temperature
  • Satellite Maps
  • Weather Map
  • Weather Widgets
  • user-avatar
    Login

    Hourly Weather Jewłach

    Today, 27 April, Thursday

    Time Temperature Precipitation Wind Pressure Humidity
    00:00 +7°C° 0 mm 2 mps 773 mmHg 68%
    01:00 +8°C° 0 mm 1 mps 773 mmHg 69%
    02:00 +7°C° 0 mm 1 mps 773 mmHg 71%
    03:00 +7°C° 0 mm 1 mps 773 mmHg 73%
    04:00 +8°C° 0 mm 1 mps 773 mmHg 70%
    05:00 +8°C° 0 mm 1 mps 773 mmHg 68%
    06:00 +8°C° 0 mm 0 mps 773 mmHg 65%
    07:00 +11°C° 0 mm 1 mps 772 mmHg 58%
    08:00 +13°C° 0 mm 1 mps 772 mmHg 50%
    09:00 +15°C° 0 mm 2 mps 772 mmHg 42%
    10:00 +16°C° 0 mm 3 mps 771 mmHg 40%
    11:00 +18°C° 0 mm 3 mps 770 mmHg 39%
    12:00 +19°C° 0 mm 4 mps 770 mmHg 37%
    13:00 +19°C° 0 mm 4 mps 770 mmHg 37%
    14:00 +20°C° 0 mm 5 mps 769 mmHg 38%
    15:00 +20°C° 0 mm 5 mps 769 mmHg 38%
    16:00 +19°C° 0 mm 4 mps 769 mmHg 42%
    17:00 +18°C° 0 mm 4 mps 769 mmHg 46%
    18:00 +17°C° 0 mm 3 mps 769 mmHg 50%
    19:00 +16°C° 0 mm 3 mps 770 mmHg 55%
    20:00 +13°C° 0 mm 3 mps 771 mmHg 59%
    21:00 +12°C° 0 mm 3 mps 771 mmHg 64%
    22:00 +12°C° 0 mm 2 mps 771 mmHg 66%
    23:00 +10°C° 0 mm 2 mps 771 mmHg 69%

    Tomorrow, 28 April, Friday

    Time Temperature Precipitation Wind Pressure Humidity
    00:00 +9°C° 0 mm 2 mps 771 mmHg 71%
    01:00 +10°C° 0 mm 1 mps 771 mmHg 71%
    02:00 +10°C° 0 mm 1 mps 770 mmHg 70%
    03:00 +9°C° 0 mm 1 mps 770 mmHg 69%
    04:00 +10°C° 0 mm 1 mps 770 mmHg 66%
    05:00 +11°C° 0 mm 1 mps 770 mmHg 64%
    06:00 +12°C° 0 mm 1 mps 770 mmHg 61%
    07:00 +14°C° 0 mm 1 mps 769 mmHg 56%
    08:00 +16°C° 0 mm 1 mps 769 mmHg 50%
    09:00 +19°C° 0 mm 1 mps 768 mmHg 44%
    10:00 +19°C° 0 mm 2 mps 768 mmHg 43%
    11:00 +20°C° 0 mm 2 mps 767 mmHg 41%
    12:00 +21°C° 0 mm 2 mps 766 mmHg 39%
    13:00 +23°C° 0 mm 2 mps 766 mmHg 38%
    14:00 +23°C° 0 mm 2 mps 765 mmHg 37%
    15:00 +24°C° 0 mm 3 mps 765 mmHg 36%
    16:00 +23°C° 0 mm 2 mps 765 mmHg 40%
    17:00 +21°C° 0 mm 2 mps 765 mmHg 44%
    18:00 +20°C° 0 mm 2 mps 765 mmHg 48%
    19:00 +19°C° 0 mm 2 mps 765 mmHg 51%
    20:00 +17°C° 0 mm 2 mps 765 mmHg 54%
    21:00 +15°C° 0 mm 2 mps 766 mmHg 58%
    22:00 +14°C° 0 mm 1 mps 766 mmHg 59%
    23:00 +14°C° 0 mm 1 mps 765 mmHg 60%

    Day after tomorrow, 29 April, Saturday

    Time Temperature Precipitation Wind Pressure Humidity
    00:00 +13°C° 0 mm 1 mps 765 mmHg 62%
    01:00 +13°C° 0 mm 1 mps 765 mmHg 63%
    02:00 +12°C° 0 mm 1 mps 764 mmHg 65%
    03:00 +11°C° 0 mm 0 mps 764 mmHg 67%
    04:00 +13°C° 0 mm 1 mps 764 mmHg 64%
    05:00 +14°C° 0 mm 1 mps 764 mmHg 62%
    06:00 +15°C° 0 mm 2 mps 764 mmHg 59%
    07:00 +17°C° 0 mm 2 mps 763 mmHg 53%
    08:00 +19°C° 0 mm 2 mps 763 mmHg 47%
    09:00 +21°C° 0 mm 2 mps 763 mmHg 41%
    10:00 +23°C° 0 mm 2 mps 762 mmHg 38%
    11:00 +25°C° 0 mm 1 mps 762 mmHg 35%
    12:00 +26°C° 0 mm 1 mps 761 mmHg 32%
    13:00 +27°C° 0 mm 1 mps 761 mmHg 31%
    14:00 +27°C° 0 mm 2 mps 760 mmHg 31%
    15:00 +28°C° 0 mm 2 mps 760 mmHg 30%
    16:00 +26°C° 0 mm 2 mps 760 mmHg 34%
    17:00 +25°C° 0 mm 2 mps 760 mmHg 38%
    18:00 +24°C° 0 mm 2 mps 760 mmHg 43%
    19:00 +23°C° 0 mm 2 mps 761 mmHg 45%
    20:00 +21°C° 0 mm 2 mps 761 mmHg 47%
    21:00 +19°C° 0 mm 3 mps 762 mmHg 50%
    22:00 +18°C° 0 mm 2 mps 761 mmHg 53%
    23:00 +17°C° 0 mm 2 mps 761 mmHg 56%

    30 April, Sunday

    Time Temperature Precipitation Wind Pressure Humidity
    00:00 +16°C° 0 mm 1 mps 761 mmHg 60%
    01:00 +15°C° 0 mm 1 mps 761 mmHg 61%
    02:00 +15°C° 0 mm 1 mps 761 mmHg 63%
    03:00 +14°C° 0 mm 1 mps 761 mmHg 65%
    04:00 +15°C° 0 mm 1 mps 761 mmHg 63%
    05:00 +16°C° 0 mm 2 mps 761 mmHg 60%
    06:00 +17°C° 0 mm 2 mps 761 mmHg 57%
    07:00 +19°C° 0 mm 2 mps 761 mmHg 50%
    08:00 +23°C° 0 mm 2 mps 761 mmHg 43%
    09:00 +25°C° 0 mm 3 mps 761 mmHg 36%
    10:00 +26°C° 0 mm 2 mps 760 mmHg 33%
    11:00 +27°C° 0 mm 2 mps 760 mmHg 31%
    12:00 +28°C° 0 mm 2 mps 759 mmHg 29%
    13:00 +29°C° 0 mm 1 mps 759 mmHg 28%
    14:00 +30°C° 0 mm 1 mps 759 mmHg 27%
    15:00 +30°C° 0 mm 1 mps 758 mmHg 26%
    16:00 +29°C° 0 mm 1 mps 759 mmHg 31%
    17:00 +28°C° 0 mm 1 mps 759 mmHg 36%
    18:00 +26°C° 0 mm 1 mps 759 mmHg 41%
    19:00 +25°C° 0 mm 1 mps 760 mmHg 41%
    20:00 +23°C° 0 mm 2 mps 760 mmHg 40%
    21:00 +20°C° 0 mm 2 mps 761 mmHg 39%
    22:00 +19°C° 0 mm 2 mps 761 mmHg 42%
    23:00 +18°C° 0 mm 2 mps 761 mmHg 44%

    1 May, Monday

    Time Temperature Precipitation Wind Pressure Humidity
    00:00 +18°C° 0 mm 1 mps 761 mmHg 47%
    01:00 +18°C° 0 mm 1 mps 761 mmHg 49%
    02:00 +16°C° 0 mm 1 mps 761 mmHg 51%
    03:00 +15°C° 0 mm 0 mps 761 mmHg 53%
    04:00 +18°C° 0 mm 1 mps 761 mmHg 51%
    05:00 +19°C° 0 mm 1 mps 761 mmHg 48%
    06:00 +19°C° 0 mm 2 mps 761 mmHg 46%
    07:00 +21°C° 0 mm 2 mps 761 mmHg 40%
    08:00 +24°C° 0 mm 2 mps 761 mmHg 34%
    09:00 +27°C° 0 mm 2 mps 761 mmHg 27%
    10:00 +28°C° 0 mm 1 mps 761 mmHg 26%
    11:00 +29°C° 0 mm 1 mps 761 mmHg 25%
    12:00 +31°C° 0 mm 1 mps 760 mmHg 24%
    13:00 +31°C° 0 mm 1 mps 760 mmHg 24%
    14:00 +31°C° 0 mm 1 mps 760 mmHg 24%
    15:00 +31°C° 0 mm 2 mps 760 mmHg 24%
    16:00 +30°C° 0 mm 2 mps 760 mmHg 28%
    17:00 +29°C° 0 mm 2 mps 760 mmHg 33%
    18:00 +28°C° 0 mm 2 mps 761 mmHg 37%
    19:00 +26°C° 0 mm 2 mps 761 mmHg 39%
    20:00 +24°C° 0 mm 2 mps 762 mmHg 42%
    21:00 +21°C° 0 mm 3 mps 762 mmHg 44%
    22:00 +20°C° 0 mm 2 mps 762 mmHg 47%
    23:00 +19°C° 0 mm 2 mps 762 mmHg 49%

    2 May, Tuesday

    Time Temperature Precipitation Wind Pressure Humidity
    00:00 +18°C° 0 mm 2 mps 762 mmHg 51%
    01:00 +19°C° 0 mm 1 mps 762 mmHg 52%
    02:00 +18°C° 0 mm 1 mps 762 mmHg 53%
    03:00 +18°C° 0 mm 1 mps 762 mmHg 54%
    04:00 +17°C° 0 mm 0 mps 762 mmHg 53%
    05:00 +17°C° 0 mm 0 mps 762 mmHg 53%
    06:00 +18°C° 0 mm 0 mps 762 mmHg 52%
    07:00 +22°C° 0 mm 1 mps 762 mmHg 45%
    08:00 +24°C° 0 mm 1 mps 762 mmHg 39%
    09:00 +26°C° 0 mm 1 mps 762 mmHg 32%
    10:00 +27°C° 0 mm 2 mps 761 mmHg 29%
    11:00 +28°C° 0 mm 2 mps 761 mmHg 27%
    12:00 +30°C° 0 mm 3 mps 761 mmHg 24%
    13:00 +30°C° 0 mm 3 mps 760 mmHg 24%
    14:00 +32°C° 0 mm 4 mps 760 mmHg 23%
    15:00 +33°C° 0 mm 5 mps 760 mmHg 23%
    16:00 +30°C° 0 mm 4 mps 760 mmHg 26%
    17:00 +29°C° 0 mm 4 mps 760 mmHg 30%
    18:00 +27°C° 0 mm 3 mps 760 mmHg 33%
    19:00 +26°C° 0 mm 3 mps 760 mmHg 34%
    20:00 +25°C° 0 mm 3 mps 761 mmHg 36%
    21:00 +22°C° 0 mm 3 mps 761 mmHg 37%
    22:00 +23°C° 0.1 mm 2 mps 761 mmHg 38%
    23:00 +21°C° 0.1 mm 2 mps 761 mmHg 39%
    Show more